Flag for U.S.A. Weather past 2 weeks in McAllen, Texas, U.S.A.

Now
78 °F

Passing clouds.


Feels Like: 80 °F
Forecast: 70 / 82 °F
Wind: 9 mph from Northeast

Location: Miller International Airport

Current Time: Oct 21, 2014 at 10:51:36 AM

Latest Report: Oct 21, 2014 at 9:53 AM


Visibility: 10 mi

Pressure: 29.98 "Hg

Humidity: 79%

Dew point: 71 °F

Location of McAllenLocation

Historic Weather in McAllen — Graph

°F

McAllen temperature yesterday

Maximum temperature yesterday: 87 °F (at 2:53 PM)
Minimum temperature yesterday: 70 °F (at 2:53 AM)
Average temperature yesterday: 77 °F

Past Weeks' High & Low Weather Summary

 TemperatureHumidityPressure
High93 °F (Oct 13, 2:53 PM)100% (Oct 7, 6:53 AM)30.19 "Hg (Oct 7, 6:53 AM)
Low56 °F (Oct 15, 5:53 AM)18% (Oct 14, 3:53 PM)29.72 "Hg (Oct 13, 4:53 AM)
Average78 °F72%29.93 "Hg
* Reported Oct 6 9:53 AM — Oct 21 9:53 AM, McAllen, Weather by CustomWeather, © 2014

Note: Actual official high and low records may vary slightly from our data, if they occured in-between our weather recording intervals... More about our weather records

Advertising

McAllen weather history for previous 24 hours

 ConditionsComfort  
Time TempWeatherWind HumidityBarometerVisibility
9:53 AM
Oct 21
78 °FPassing clouds.9 mph79%29.98 "Hg10 mi
8:53 AM73 °FScattered clouds.6 mph90%29.97 "Hg7 mi
7:53 AM71 °FPassing clouds.8 mph93%29.95 "Hg7 mi
6:53 AM71 °FPassing clouds.7 mph93%29.93 "Hg8 mi
5:53 AM71 °FClear.6 mph93%29.92 "Hg8 mi
4:53 AM72 °FPassing clouds.7 mph91%29.92 "Hg8 mi
3:53 AM72 °FPassing clouds.5 mph93%29.92 "Hg9 mi
2:53 AM71 °FPassing clouds.3 mph93%29.93 "Hg10 mi
1:53 AM73 °FPassing clouds.5 mph90%29.93 "Hg10 mi
12:53 AM73 °FPassing clouds.5 mph90%29.95 "Hg10 mi
11:53 PM
Oct 20
73 °FClear.5 mph90%29.95 "Hg10 mi
10:53 PM74 °FClear.7 mph88%29.95 "Hg10 mi
9:53 PM75 °FPassing clouds.7 mph85%29.96 "Hg10 mi
8:53 PM75 °FClear.8 mph82%29.94 "Hg10 mi
7:53 PM76 °FPassing clouds.8 mph80%29.92 "Hg10 mi
6:53 PM78 °FMore clouds than sun.15 mph74%29.90 "Hg10 mi
5:53 PM81 °FOvercast.6 mph65%29.89 "Hg10 mi
4:53 PM84 °FPassing clouds.14 mph65%29.88 "Hg10 mi
3:53 PM80 °FCloudy.10 mph74%29.88 "Hg10 mi
2:53 PM87 °FBroken clouds.7 mph53%29.89 "Hg10 mi
1:53 PM84 °FPartly sunny.No wind61%29.93 "Hg10 mi
12:53 PM84 °FBroken clouds.10 mph57%29.96 "Hg10 mi
11:53 AM84 °FCloudy.8 mph59%29.98 "Hg10 mi
10:53 AM82 °FSunny.7 mph65%29.98 "Hg10 mi
Weather by CustomWeather, © 2014

See weather overviewHow to use our weather pages